This demonstration page uses our WeatherBlox Daily Observations layout. Learn more.

Left ArrowRight Arrow

41.12389, -100.76542

Hourly Observations for March 30, 2019

Temp ( °F °C ) Dew Point ( °F °C ) Humidity (%) Winds ( mph kmh ) Pressure ( in mb ) Visibility ( mi km ) Precip ( " mm )
12:33 am 00:33 Cloudy with Light Snow 30 -1.1 27 -2.8 88 88 N 12 19 30.31 1026 3 4 0.00 0.03
12:44 am 00:44 Cloudy with Light Snow 30 -1.1 27 -2.8 88 88 N 9 15 30.31 1026 2 3 0.00 0.03
12:53 am 00:53 Cloudy with Light Snow 30 -1.1 28 -2.2 92 92 N 12 19 30.25 1024 3 4 0.00 0.03
1:01 am 01:01 Cloudy with Light Snow 30 -1.1 28 -2.2 92 92 N 10 17 30.30 1026 4 6 0.00 0.03
1:09 am 01:09 Cloudy with Light Snow 30 -1.1 28 -2.2 92 92 NNW 9 15 30.30 1026 4 6 0.00 0.03
1:53 am 01:53 Cloudy with Light Snow 31 -0.6 28 -2.2 89 89 N 9 15 30.24 1024 7 11 0.00 0.03
2:53 am 02:53 Cloudy with Light Wintry Mix 30 -1.1 27 -2.8 88 88 NNW 9 15 30.25 1024 10 16 0.00 0.03
3:53 am 03:53 Cloudy with Light Wintry Mix 29 -1.7 26 -3.3 89 89 NNW 9 15 30.26 1025 10 16 0.00 0.03
4:53 am 04:53 Cloudy 31 -0.6 27 -2.8 85 85 NNW 12 19 30.27 1025 10 16 0.00 0.03
5:53 am 05:53 Cloudy 34 1.1 29 -1.7 82 82 N 15 24 30.29 1026 10 16 0.00 0.00
6:53 am 06:53 Partly Cloudy 31 -0.6 26 -3.3 82 82 NNE 17 28 30.32 1027 10 16 0.00 0.00
7:40 am 07:40 Cloudy 31 -0.6 27 -2.8 85 85 N 10 17 30.41 1030 10 16 0.00 0.00
7:53 am 07:53 Cloudy 31 -0.6 27 -2.8 85 85 N 10 17 30.38 1029 10 16 0.00 0.00
8:17 am 08:17 Partly Cloudy 30 -1.1 26 -3.3 85 85 N 9 15 30.43 1030 10 16 0.00 0.00
8:48 am 08:48 Mostly Cloudy 30 -1 27 -3 86 86 N 8 13 30.45 1031 10 16 0.00 0.00
8:53 am 08:53 Cloudy 32 0 26 -3.3 79 79 NNE 14 22 30.40 1030 10 16 0.00 0.00
9:33 am 09:33 Partly Cloudy 31 -0.6 25 -3.9 79 79 NNE 14 22 30.45 1031 10 16 0.00 0.00
9:53 am 09:53 Sunny 30 -1.1 23 -5 75 75 NNE 15 24 30.42 1030 10 16 0.00 0.00
10:53 am 10:53 Mostly Cloudy 30 -1.1 23 -5 75 75 NNE 12 19 30.46 1031 10 16 0.00 0.00
11:04 am 11:04 Partly Cloudy 30 -1.1 23 -5 75 75 NNE 13 20 30.51 1033 10 16 0.00 0.00
11:53 am 11:53 Mostly Cloudy 31 -0.6 23 -5 72 72 N 14 22 30.48 1032 10 16 0.00 0.00
12:33 pm 12:33 Mostly Cloudy 32 0 23 -5 69 69 NNE 13 20 30.51 1033 10 16 0.00 0.00
12:53 pm 12:53 Cloudy 32 0 23 -5 69 69 NNE 15 24 30.48 1032 10 16 0.00 0.00
1:53 pm 13:53 Mostly Cloudy 32 0 23 -5 69 69 NNE 14 22 30.47 1032 10 16 0.00 0.00
2:25 pm 14:25 Mostly Cloudy 32 0 21 -6.1 64 64 NNE 15 24 30.51 1033 10 16 0.00 0.00
2:53 pm 14:53 Cloudy 32 0 22 -5.6 66 66 N 10 17 30.48 1032 10 16 0.00 0.00
3:38 pm 15:38 Mostly Cloudy 33 0.6 21 -6.1 61 61 N 12 19 30.49 1032 10 16 0.00 0.00
3:53 pm 15:53 Mostly Cloudy 33 0.6 22 -5.6 64 64 NNE 14 22 30.46 1031 10 16 0.00 0.00
4:53 pm 16:53 Cloudy 34 1.1 22 -5.6 61 61 NNE 15 24 30.44 1031 10 16 0.00 0.00
5:53 pm 17:53 Cloudy 33 0.6 20 -6.7 58 58 N 12 19 30.43 1031 10 16 0.00 0.00
6:53 pm 18:53 Mostly Sunny 33 0.6 21 -6.1 61 61 N 9 15 30.44 1031 10 16 0.00 0.00
7:53 pm 19:53 Sunny 30 -1.1 21 -6.1 69 69 N 3 6 30.44 1031 10 16 0.00 0.00
8:53 pm 20:53 Clear 27 -2.8 20 -6.7 75 75 NNW 5 7 30.45 1031 10 16 0.00 0.00
9:53 pm 21:53 Clear 22 -5.6 18 -7.8 85 85 N 3 6 30.49 1032 10 16 0.00 0.00
10:53 pm 22:53 Clear 21 -6.1 16 -8.9 81 81 WNW 7 11 30.49 1033 10 16 0.00 0.00
11:53 pm 23:53 Clear 20 -6.7 17 -8.3 89 89 NNW 7 11 30.49 1033 10 16 0.00 0.00

Powered by AerisWeather